Regional Weather Roundup
Issued by NWS Sterling, VA

Home | Current Version | Previous Version | Graphics & Text | Print | Product List | Glossary On
Versions: 1 2 3 4 5 6 7 8 9 10 11 12 13 14 15 16 17 18 19 20 21 22 23 24 25 26
000
ASUS41 KLWX 261810
RWRLWX

REGIONAL WEATHER ROUNDUP
NATIONAL WEATHER SERVICE BALTIMORE MD/WASHINGTON DC
200 PM EDT THU MAY 26 2016

Note: "FAIR" indicates few or no clouds below 12,000 feet
with no significant weather and/or obstructions to visibility.
 TC=TEMPERATURE CELSIUS

 * =Non NWS site. Station does not report precipitation (e.g. rain,
    snow, etc.), thunder, or fog.

DCZ001-MDZ009-015-VAZ040>042-051-053>054-261900-
WASHINGTON METRO

CITY           SKY/WX    TMP DP  RH WIND       PRES   REMARKS
WASHINGTON NAT PTSUNNY   84  66  54 S13       30.06F
DULLES         PTSUNNY   87  63  44 CALM      30.07F
ANDREWS AFB    MOSUNNY   86  64  46 S10       30.06F
FT BELVOIR     FAIR      86  64  48 S9        30.06F
QUANTICO       FAIR      82  68  62 S3        30.07F
COLLEGE PARK*  FAIR      86  59  39 S6        30.05F
LEESBURG*      FAIR      90  70  51 S7        30.07F HX  95
MANASSAS*      SUNNY     88  63  42 SW7       30.06F

$$

MDZ006>007-011-014-261900-
BALTIMORE METRO

CITY           SKY/WX    TMP DP  RH WIND       PRES   REMARKS
BWI AIRPORT    PTSUNNY   89  61  38 SW9       30.04F
MD SCIENCE CTR   N/A     86  63  45 MISG      30.05F
MARTIN STATE   MOSUNNY   82  66  57 SE10      30.08F
ANNAPOLIS      SUNNY     76  66  71 SE13      30.06F
FORT MEADE*    SUNNY     88  57  35 S8G17     30.07F

$$

MDZ012-015-019>023-261900-
MARYLAND EASTERN SHORE

CITY           SKY/WX    TMP DP  RH WIND       PRES   REMARKS
OCEAN CITY     MOSUNNY   72  64  76 S8        30.10F
SALISBURY      SUNNY     88  58  36 SW8       30.08F
BAY BRIDGE AP* SUNNY     86  63  45 S12       30.06F
CAMBRIDGE*     SUNNY     84  57  39 S6        30.08F
EASTON*        MOSUNNY   88  66  48 SW8       30.11F HX  90

$$

MDZ017>025-261900-
SOUTHERN MARYLAND

CITY           SKY/WX    TMP DP  RH WIND       PRES   REMARKS
PATUXENT RIVER MOSUNNY   80  66  62 SE10      30.07F
ST INIGOES     SUNNY     86  65  49 SE7       30.07F
LEONARDTOWN*   SUNNY     86  59  39 S7        30.09F

$$

MDZ003>005-261900-
NORTH CENTRAL MARYLAND

CITY           SKY/WX    TMP DP  RH WIND       PRES   REMARKS
FREDERICK*     SUNNY     88  66  48 S3        30.08F HX  90
HAGERSTOWN APT SUNNY     85  57  38 VRB7      30.06F
WESTMINSTER*   SUNNY     88  82  84 W8        30.08F HX 108

$$

MDZ501>502-261900-
WESTERN MARYLAND

CITY           SKY/WX    TMP DP  RH WIND       PRES   REMARKS
OAKLAND*       PTSUNNY   72  55  56 SW9       30.18F
CUMBERLAND*    MOSUNNY   82  61  47 SE5       30.10F

$$

VAZ025>031-261900-
SHENANDOAH VALLEY

CITY           SKY/WX    TMP DP  RH WIND       PRES   REMARKS
WINCHESTER*    FAIR      86  59  39 SW6       30.08S
FRONT ROYAL*   FAIR      84  61  45 SW7       30.07F
LURAY*         FAIR      84  61  45 S7        30.09F
NEW MARKET*    FAIR      84  64  51 S9        30.07F
STAUNTON*      FAIR      82  61  49 S7        30.13F
WAYNESBORO*    FAIR      82  60  47 W8        30.13F

$$

WVZ021-048>050-054>055-261900-
EASTERN WEST VIRGINIA PANHANDLE

CITY           SKY/WX    TMP DP  RH WIND       PRES   REMARKS
MARTINSBURG    FAIR      86  61  42 MISG      30.06F
PETERSBURG*    FAIR      84  63  50 SW8       30.09F

$$

VAZ036>039-050-261900-
CENTRAL FOOTHILLS

CITY           SKY/WX    TMP DP  RH WIND       PRES   REMARKS
CHARLOTTESVILL FAIR      87  63  44 CALM      30.08F
CULPEPER*      FAIR      89  65  45 SW6       30.07F HX  90
ORANGE*        FAIR      88  63  42 NE6       30.10F
GORDONSVILLE*  FAIR      87  64  46 S5        30.08F
WARRENTON*     FAIR      86  58  37 S8        30.07F

$$

VAZ055>057-261900-
NORTH AND CENTRAL PIEDMONT

CITY           SKY/WX    TMP DP  RH WIND       PRES   REMARKS
FREDERICKSBRG* NOT AVBL
STAFFORD*      FAIR      87  59  38 SW9       30.10F

$$

NCZ024-NYZ072-PAZ021-071-VAZ022-071-261900-
OTHER REGIONAL OBSERVATIONS

CITY           SKY/WX    TMP DP  RH WIND       PRES   REMARKS
NEW YORK CITY  SUNNY     89  48  24 VRB5      30.07F
PHILADELPHIA   PTSUNNY   88  51  28 SW10      30.07F
PITTSBURGH     CLOUDY    80  60  50 SW10      30.07F
ROANOKE        FAIR      81  64  56 S6        30.15F
RICHMOND       FAIR      87  60  40 S12G20    30.09F
RALEIGH        MOSUNNY   87  61  41 SW12      30.14F

$$

ANZ530>537-261900-
MARINE OBSERVATIONS

STATION/POSITION TIME  TEMP    WIND        PRES
                       AIR SEA DIR/SP/G
                 (UTC) (F)     (DEG/KT/KT) (MB)
THOMAS PT LIGHT  1800   72 66  180/ 10/ 11 1019.2F
BALT KEY BRIDGE  1700   77     120/ 12/ 14 1018.0F
COVE POINT       1700   68     180/ 11/ 12 1019.7F
LEWISETTA        1700   85 72  230/  8/ 10 1018.7F
SOLOMONS ISLAND  1700   75 64   80/  8/ 10   N/A
PINEY POINT      1700          150/  7/  8   N/A

$$





USA.gov is the U.S. government's official web portal to all federal, state and local government web resources and services.